Regional Weather Roundup
Issued by NWS

Home | Current Version | Previous Version | Text Only | Print | Product List | Glossary On
Versions: 1 2 3 4 5 6 7 8 9 10 11 12 13 14 15 16 17 18 19 20 21 22 23 24 25 26 27 28 29 30 31 32 33 34 35 36 37 38 39 40 41 42 43 44 45 46 47 48 49 50
000
ASUS42 KKEY 301810
RWRKEY

FLORIDA REGIONAL WEATHER ROUNDUP FOR THE FLORIDA KEYS
NATIONAL WEATHER SERVICE KEY WEST FLORIDA
200 PM EDT SAT APR 30 2016

...SOUTH FLORIDA AND THE KEYS...

CITY           SKY/WX    TMP DP  RH WIND       PRES   REMARKS
FORT MYERS     CLOUDY    85  66  53 SE10G17   29.94F
SW REGIONAL AP CLOUDY    85  65  51 E14       29.95S
NAPLES         CLOUDY    87  64  46 E13       29.94S
MIAMI          PTSUNNY   83  64  52 E20       29.96F
WEST KENDALL     N/A    N/A N/A N/A MISG      29.96F
HOMESTEAD      MOSUNNY   82  66  56 E16G22    29.96F
MARATHON       CLOUDY    84  67  56 E13G18    29.94F
BOCA CHICA NAS CLOUDY    84  66  54 E16       29.95S
KEY WEST INTL  MOSUNNY   82  68  62 E17       29.95F

...INTERNATIONAL WEATHER...

CITY           SKY/WX    TMP DP  RH WIND       PRES   REMARKS
NASSAU BAHAMAS MOSUNNY   82  73  74 N14       29.98F
CANCUN MEXICO  PTSUNNY   84  77  79 SE15      29.83F HX  94
COZUMEL MEXICO PTSUNNY   84  75  74 SE13G24   29.82F HX  92

ADJACENT COASTAL WATERS...

STATION/POSITION TIME  SKY/WX   TEMP    WIND        PRES    WAVE
                                AIR SEA DIR/SP/G            HT/PER
                 (UTC)          (F)     (DEG/KT/KT) (MB)    (FT/S)
PULASKI SHOAL LI 1800            78     110/ 15/ 16 1013.5F
SAND KEY         1750            78     110/ 16/ 18 1014.5F
SOMBRERO KEY     NOT AVBL
LONG KEY         1800            78 81   90/ 15/ 18 1014.3F
MOLASSES REEF    1800            77 81  100/ 16/ 17 1014.4F
FOWEY ROCKS      NOT AVBL

$$



USA.gov is the U.S. government's official web portal to all federal, state and local government web resources and services.